Orbital elements:
2018 DG1                                                 Earth MOID = 0.0112 AU
Epoch 2018 Mar. 23.0 TT = JDT 2458200.5                 MPC
M  35.92564              (2000.0)            P               Q
n   0.43877246     Peri.   78.64149     +0.37651279     -0.92589097
a   1.7151804      Node   349.08518     +0.77312134     +0.33250144
e   0.6059246      Incl.    9.43778     +0.51041308     +0.17935635
P   2.25           H   22.8           G   0.15           U   6
Residuals in seconds of arc
180222 703  0.1-  0.5-    180223 K74  0.1+  0.4+    180223 P93  0.3-  0.2-
180222 703  0.2-  0.4+    180223 K74  0.1+  0.2+    180223 P93  0.5-  0.0
180222 703  0.4-  0.9-    180223 K74  0.1+  0.5+    180223 A17  0.3-  0.1+
180222 703  1.1-  0.5-    180223 J22  0.5-  0.3-    180223 A17  0.2+  0.0
180222 I52  1.1+  2.2-    180223 J22  0.1-  0.3-    180223 A17  0.2-  0.2+
180222 I52  0.3+  0.1+    180223 J22  0.6-  0.0     180223 033  0.0   0.1-
180222 I52  0.6-  0.7-    180223 W34  0.6-  0.9-    180223 033  0.1-  0.0
180222 291  0.4-  0.3-    180223 W34  0.4-  1.0-    180223 033  0.0   0.1-
180222 291  0.5-  0.3-    180223 W34  0.8-  0.3-    180224 L01  0.1-  0.0
180222 291  0.2-  0.2-    180223 W34  0.3+  0.5+    180224 L01  0.7+  0.3-
180222 033 (4.7+  4.2+)   180223 W34  0.2-  0.5-    180224 033  0.1+  0.1+
180222 033 (4.7+  4.1+)   180223 Z84  0.0   0.4-    180224 033  0.1+  0.1+
180222 033 (5.0+  4.8+)   180223 Z84  0.2+  0.3-    180224 033  0.1-  0.2-
180222 C43  0.7-  0.3+    180223 Z84  0.3+  0.1+    180224 595  0.3+  0.4+
180222 C43  0.7-  0.0     180223 Z84  1.1-  1.0+    180224 595  0.8-  0.1+
180222 C43  0.1+  0.4-    180223 Z84  0.5-  0.4-    180224 595  0.4+  0.3-
180222 J69  1.0-  0.3-    180223 Z84  0.1+  0.3-    180224 K87  0.2+  0.1-
180222 C43  0.1+  0.1+    180223 Z84  0.1-  0.1+    180224 K87  0.7+  0.1+
180222 J69  0.8-  0.6-    180223 703  0.8+  0.3+    180225 K87  0.2+  0.1-
180222 J69  0.7-  0.5-    180223 703  0.0   0.6+    180225 K87  0.4-  0.2+
180222 J69  0.9-  0.8-    180223 I52  0.0   0.1+    180225 K87  0.0   0.1-
180222 Z80  0.6+  1.4-    180223 I52  0.2-  0.2-    180225 K88  0.2-  0.3+
180222 Z80  0.7+  1.1-    180223 I52  0.3+  0.3-    180225 K88  0.8+  0.6+
180223 J95  0.1-  0.2-    180223 I52  0.0   0.2-    180225 K88  0.6+  0.2+
180223 J95  0.3-  0.1-    180223 703  0.5-  0.1+    180225 I52  0.1-  0.4-
180223 J95  0.5-  0.2+    180223 703  1.1-  0.2-    180225 I52  0.0   1.0-
180223 K74  0.5+  0.2+    180223 P93  0.1-  0.2+    180225 I52  0.1-  0.1-
180223 K74  0.2+  0.5+    180223 P93  0.9-  0.1-    180225 I52  0.3-  0.1-

Ephemeris:
2018 DG1                 a,e,i = 1.72, 0.61, 9                   q = 0.6759
Date    TT    R. A. (2000) Decl.     Delta      r     Elong.  Phase     V
2018 01 26    21 20 12.1 +10 09 34   0.2377  0.7912    31.3   139.7    26.0
...
2018 02 10    20 12 52.9 +29 06 36   0.09674 0.9245    47.8   127.8    23.1
...
2018 02 18    15 43 13.9 +50 46 34   0.05883 1.0027   102.5    74.2    19.2
...
2018 02 24    12 00 53.5 +31 34 57   0.08384 1.0625   149.2    28.5    18.8
2018 02 25    11 46 02.6 +28 34 30   0.09120 1.0725   153.9    23.9    18.9
2018 02 26    11 34 05.5 +25 56 34   0.09905 1.0825   158.0    20.1    19.0
...
2018 03 04    10 54 18.8 +15 48 59   0.1527  1.1424   170.8     8.0    19.6
...
2018 03 12    10 34 05.5 +09 42 47   0.2343  1.2217   165.4    11.8    20.8
...
2018 03 27    10 24 17.6 +05 00 09   0.4088  1.3662   149.7    21.6    22.6

A. U. Tomatic                (C) Copyright 2018 MPC           M.P.E.C. 2018-D62



More information about the Iaude mailing list